Retour au catalogue

STARLINK-33763

ActifCommunicationsVLEO
NORAD 63452·PAYLOAD·🇺🇸 United States

Lancé Apr 4, 2025 depuis Vandenberg Space Force Base

Loading…

Prochains Passages (prochaines 24 heures)

TLE

FraisSource: CelesTrak SupGP

Époque: Sep 15, 2026, 03:31 UTC

1 63452C 25069V   26258.14701389  .00056868  00000+0  16795-2 0  2588
2 63452  53.1584 334.8622 0001222  92.5623  74.2507 15.34375720    13

Suivez STARLINK-33763 en temps réel avec AllMySat

Download on the App Store